KC1HBM Weather Reports


Display with metric or nautical units.
time (UTC)temp
F
wind
direction
speed
MPH
gust
MPH
rain 1hr
in
rain 24hr
in
rain mn
in
humidity
%
barometer
mb
20260509150734 54 335 0.0 1.0 0.00 0.00 0.00 56 1013.0
20260509150232 54 336 1.0 2.0 0.00 0.00 0.00 56 1013.0
20260509145729 55 336 2.0 2.0 0.00 0.00 0.00 55 1012.7
20260509145223 54 332 2.0 2.0 0.00 0.00 0.00 52 1012.8
20260509144720 55 332 1.0 2.0 0.00 0.00 0.00 53 1012.8
20260509144217 55 332 2.0 2.0 0.00 0.00 0.00 52 1012.8
20260509143714 56 331 1.0 1.0 0.00 0.00 0.00 52 1012.8
20260509143211 56 322 2.0 2.0 0.00 0.00 0.00 51 1012.5
20260509142706 55 337 2.0 2.0 0.00 0.00 0.00 51 1012.7
20260509142204 55 339 2.0 2.0 0.00 0.00 0.00 51 1012.6
20260509141659 56 339 2.0 2.0 0.00 0.00 0.00 49 1012.6
20260509141156 55 339 2.0 2.0 0.00 0.00 0.00 51 1012.7
20260509140653 57 321 1.0 1.0 0.00 0.00 0.00 50 1012.6
20260509140151 57 315 0.0 1.0 0.00 0.00 0.00 48 1012.8
20260509135648 57 318 0.0 1.0 0.00 0.00 0.00 48 1012.7
20260509135146 57 322 1.0 1.0 0.00 0.00 0.00 47 1012.7
20260509134642 57 326 1.0 2.0 0.00 0.00 0.00 46 1012.6
20260509134140 57 319 1.0 1.0 0.00 0.00 0.00 44 1012.7
20260509133637 58 308 2.0 2.0 0.00 0.00 0.00 47 1012.8
20260509133134 58 307 2.0 2.0 0.00 0.00 0.00 49 1012.9
20260509132632 58 313 1.0 1.0 0.00 0.00 0.00 45 1012.7
20260509132130 58 307 2.0 3.0 0.00 0.00 0.00 48 1012.9
20260509131626 57 310 2.0 2.0 0.00 0.00 0.00 45 1012.9
20260509131123 57 321 0.0 1.0 0.00 0.00 0.00 47 1012.8
20260509130619 58 305 0.0 0.0 0.00 0.00 0.00 49 1012.9
20260509130115 58 305 0.0 0.0 0.00 0.00 0.00 52 1012.7
20260509125612 59 309 1.0 2.0 0.00 0.00 0.00 51 1012.8
20260509125109 58 306 0.0 1.0 0.00 0.00 0.00 52 1013.0
20260509124605 58 308 1.0 1.0 0.00 0.00 0.00 51 1012.9
20260509124103 58 311 0.0 1.0 0.00 0.00 0.00 51 1013.0
20260509123600 57 311 1.0 1.0 0.00 0.00 0.00 53 1012.9
20260509123057 57 311 0.0 1.0 0.00 0.00 0.00 52 1013.2
20260509122553 58 308 1.0 1.0 0.00 0.00 0.00 51 1013.0
20260509122050 58 308 1.0 2.0 0.00 0.00 0.00 53 1013.2
20260509121546 58 309 2.0 2.0 0.00 0.00 0.00 54 1012.9
20260509121048 58 309 0.0 0.0 0.00 0.00 0.00 58 1013.1
20260509120542 56 309 0.0 0.0 0.00 0.00 0.00 59 1012.9
20260509120041 54 309 0.0 0.0 0.00 0.00 0.00 58 1013.1
20260509115537 56 309 0.0 0.0 0.00 0.00 0.00 58 1012.9
20260509115035 54 309 0.0 1.0 0.00 0.00 0.00 62 1012.7
20260509114533 54 309 1.0 1.0 0.00 0.00 0.00 62 1012.8
20260509114031 55 309 1.0 1.0 0.00 0.00 0.00 60 1013.2
20260509113529 56 309 0.0 0.0 0.00 0.00 0.00 60 1012.9
20260509113027 55 309 0.0 0.0 0.00 0.00 0.00 58 1012.9
20260509112523 55 309 0.0 0.0 0.00 0.00 0.00 57 1013.0
20260509112020 52 309 0.0 0.0 0.00 0.00 0.00 62 1013.1
20260509111517 55 309 0.0 0.0 0.00 0.00 0.00 59 1013.1
20260509111014 54 309 0.0 0.0 0.00 0.00 0.00 62 1013.1
20260509110511 53 309 0.0 0.0 0.00 0.00 0.00 64 1013.1
20260509110008 53 309 0.0 0.0 0.00 0.00 0.00 64 1012.8
20260509105506 53 309 0.0 0.0 0.00 0.00 0.00 64 1013.1
20260509105003 52 309 0.0 0.0 0.00 0.00 0.00 66 1012.7
20260509104500 50 309 0.0 0.0 0.00 0.00 0.00 70 1012.8
20260509103957 48 310 0.0 0.0 0.00 0.00 0.00 78 1012.7
20260509103455 47 312 0.0 0.0 0.00 0.00 0.00 80 1012.7
20260509102953 45 310 0.0 0.0 0.00 0.00 0.00 83 1012.5
20260509102450 44 305 1.0 1.0 0.00 0.00 0.00 83 1012.6
20260509101946 44 308 0.0 0.0 0.00 0.00 0.00 84 1012.4
20260509101443 43 306 0.0 1.0 0.00 0.00 0.00 83 1012.2
20260509100940 44 307 0.0 1.0 0.00 0.00 0.00 82 1012.6
20260509100437 43 311 0.0 0.0 0.00 0.00 0.00 88 1012.2
20260509095933 41 311 0.0 0.0 0.00 0.00 0.00 92 1012.1
20260509095431 39 312 0.0 0.0 0.00 0.00 0.00 93 1012.1
20260509094928 38 312 0.0 0.0 0.00 0.00 0.00 94 1012.1
20260509094424 38 312 0.0 0.0 0.00 0.00 0.00 94 1011.7
20260509093922 37 312 0.0 0.0 0.00 0.00 0.00 93 1011.9
20260509093419 37 315 0.0 0.0 0.00 0.00 0.00 93 1011.6
20260509092917 37 313 0.0 0.0 0.00 0.00 0.00 92 1011.6
20260509092415 37 314 0.0 0.0 0.00 0.00 0.00 92 1011.6
20260509091914 37 313 0.0 0.0 0.00 0.00 0.00 92 1011.3
20260509091410 37 313 0.0 0.0 0.00 0.00 0.00 91 1011.5
20260509090907 37 313 0.0 0.0 0.00 0.00 0.00 90 1011.4
20260509090404 37 314 0.0 0.0 0.00 0.00 0.00 90 1011.4
20260509085902 37 313 0.0 0.0 0.00 0.00 0.00 89 1011.3
20260509085359 37 314 0.0 0.0 0.00 0.00 0.00 89 1011.5
20260509084855 38 314 0.0 0.0 0.00 0.00 0.00 89 1011.4
20260509084352 38 314 0.0 0.0 0.00 0.00 0.00 89 1011.4
20260509083850 39 314 0.0 0.0 0.00 0.00 0.00 89 1011.4
20260509083346 39 313 0.0 0.0 0.00 0.00 0.00 89 1011.3
20260509082843 39 315 0.0 0.0 0.00 0.00 0.00 89 1011.5
20260509082340 39 316 0.0 0.0 0.00 0.00 0.00 89 1011.5
20260509081837 39 318 0.0 0.0 0.00 0.00 0.00 89 1011.8
20260509081334 39 316 0.0 0.0 0.00 0.00 0.00 89 1011.7
20260509080832 39 316 0.0 1.0 0.00 0.00 0.00 89 1011.7
20260509080330 40 314 0.0 0.0 0.00 0.00 0.00 90 1011.5
20260509075828 40 314 0.0 0.0 0.00 0.00 0.00 90 1011.6
20260509075324 41 314 0.0 0.0 0.00 0.00 0.00 90 1011.4
20260509074821 41 314 0.0 0.0 0.00 0.00 0.00 90 1011.5
20260509074319 41 314 0.0 0.0 0.00 0.00 0.00 90 1011.7
20260509073815 41 314 0.0 0.0 0.00 0.00 0.00 90 1011.5
20260509073312 41 314 0.0 0.0 0.00 0.00 0.00 90 1011.6
20260509072809 41 314 0.0 0.0 0.00 0.00 0.00 89 1011.5
20260509072306 41 314 0.0 0.0 0.00 0.00 0.00 89 1011.4
20260509071802 41 314 0.0 0.0 0.00 0.00 0.00 88 1011.5
20260509071259 41 314 0.0 0.0 0.00 0.00 0.00 88 1011.5
20260509070756 42 314 0.0 0.0 0.00 0.00 0.00 87 1011.4
20260509070252 42 314 0.0 0.0 0.00 0.00 0.00 86 1011.5
20260509065749 42 313 0.0 0.0 0.00 0.00 0.00 86 1011.3
20260509065245 42 313 0.0 0.0 0.00 0.00 0.00 84 1011.3
20260509064741 42 313 0.0 0.0 0.00 0.00 0.00 83 1011.5
20260509064239 42 313 0.0 0.0 0.00 0.00 0.00 82 1011.4
20260509063736 42 314 0.0 0.0 0.00 0.00 0.00 79 1011.3
20260509063232 42 314 0.0 0.0 0.00 0.00 0.00 79 1011.3
20260509062730 42 314 0.0 0.0 0.00 0.00 0.00 77 1011.3
20260509062227 42 314 0.0 0.0 0.00 0.00 0.00 76 1011.2
20260509061724 42 314 0.0 0.0 0.00 0.00 0.00 77 1011.4
20260509061222 42 314 0.0 0.0 0.00 0.00 0.00 77 1011.1
20260509060719 42 314 0.0 0.0 0.00 0.00 0.00 77 1011.2
20260509060215 42 314 0.0 0.0 0.00 0.00 0.00 78 1011.2
20260509055711 43 314 0.0 0.0 0.00 0.00 0.00 77 1011.0
20260509055207 43 314 0.0 0.0 0.00 0.00 0.00 76 1011.3
20260509054703 43 314 0.0 0.0 0.00 0.00 0.00 74 1011.0
20260509054201 43 314 0.0 0.0 0.00 0.00 0.00 76 1011.0
20260509053659 44 314 0.0 0.0 0.00 0.00 0.00 77 1011.0
20260509053155 44 314 0.0 0.0 0.00 0.00 0.00 76 1011.1
20260509052654 44 314 0.0 0.0 0.00 0.00 0.00 75 1011.0
20260509052151 44 314 0.0 0.0 0.00 0.00 0.00 76 1011.1
20260509051649 44 314 0.0 0.0 0.00 0.00 0.00 77 1011.1
20260509051146 44 314 0.0 0.0 0.00 0.00 0.00 70 1011.1
20260509050643 44 314 0.0 0.0 0.00 0.00 0.00 70 1011.1
20260509050139 44 314 0.0 0.0 0.00 0.00 0.00 70 1010.9
20260509045637 44 314 0.0 0.0 0.00 0.00 0.00 71 1011.0
20260509045133 44 314 0.0 0.0 0.00 0.00 0.00 72 1011.1
20260509044631 44 314 0.0 0.0 0.00 0.00 0.00 73 1010.9
20260509044128 44 314 0.0 0.0 0.00 0.00 0.00 75 1011.1
20260509043624 44 314 0.0 0.0 0.00 0.00 0.00 75 1011.0
20260509043120 44 314 0.0 0.0 0.00 0.00 0.00 75 1011.2
20260509042617 44 314 0.0 0.0 0.00 0.00 0.00 74 1010.9
20260509042112 44 314 0.0 0.0 0.00 0.00 0.00 72 1011.1
20260509041610 44 314 0.0 0.0 0.00 0.00 0.00 71 1011.0
20260509041107 44 314 0.0 0.0 0.00 0.00 0.00 73 1011.0
20260509040606 44 314 0.0 0.0 0.00 0.00 0.00 72 1010.7
20260509035558 44 314 0.0 0.0 0.00 0.00 0.00 73 1010.6
20260509035055 44 314 0.0 0.0 0.00 0.00 0.00 73 1010.6
20260509034553 44 314 0.0 0.0 0.00 0.00 0.00 74 1010.4
20260509034050 44 314 0.0 0.0 0.00 0.00 0.00 75 1010.5
20260509033547 44 314 0.0 0.0 0.00 0.00 0.00 76 1010.6
20260509033044 44 314 0.0 0.0 0.00 0.00 0.00 77 1010.4
20260509032542 44 314 0.0 0.0 0.00 0.00 0.00 79 1010.4
20260509032038 44 314 0.0 0.0 0.00 0.00 0.00 80 1010.3
20260509031536 44 314 0.0 0.0 0.00 0.00 0.00 80 1010.2
20260509031033 44 314 0.0 0.0 0.00 0.00 0.00 80 1010.1
20260509030531 44 314 0.0 0.0 0.00 0.00 0.00 81 1010.1
20260509030028 44 314 0.0 0.0 0.00 0.00 0.00 82 1010.1
20260509025524 44 314 0.0 0.0 0.00 0.00 0.00 83 1010.1
20260509025019 44 314 0.0 0.0 0.00 0.00 0.00 81 1010.0
20260509024516 44 314 0.0 0.0 0.00 0.00 0.00 81 1010.0
20260509024012 44 314 0.0 0.0 0.00 0.00 0.00 81 1010.0
20260509023510 44 314 0.0 0.0 0.00 0.00 0.00 80 1009.9
20260509023006 44 314 0.0 0.0 0.00 0.00 0.00 80 1009.8
20260509022503 44 314 0.0 0.0 0.00 0.00 0.00 78 1009.8
20260509022001 43 314 0.0 0.0 0.00 0.00 0.00 77 1009.7
20260509021457 43 314 0.0 0.0 0.00 0.00 0.00 76 1009.8
20260509020954 43 314 0.0 0.0 0.00 0.00 0.00 77 1009.5
20260509020453 43 314 0.0 0.0 0.00 0.00 0.00 77 1009.7
20260509015949 43 314 0.0 0.0 0.00 0.00 0.00 78 1009.4
20260509015448 44 314 0.0 0.0 0.00 0.00 0.00 78 1009.5
20260509014944 44 314 0.0 0.0 0.00 0.00 0.00 77 1009.3
20260509014442 44 314 0.0 0.0 0.00 0.00 0.00 77 1009.4
20260509013938 44 314 0.0 0.0 0.00 0.00 0.00 76 1009.2
20260509013435 45 314 0.0 0.0 0.00 0.00 0.00 76 1009.2
20260509012930 46 314 0.0 0.0 0.00 0.00 0.00 74 1009.1
20260509012427 46 314 0.0 0.0 0.00 0.00 0.00 70 1009.2
20260509011924 47 314 0.0 0.0 0.00 0.00 0.00 60 1009.0
20260509011421 47 314 0.0 0.0 0.00 0.00 0.00 54 1008.7
20260509010919 47 314 0.0 0.0 0.00 0.00 0.00 53 1008.7
20260509010417 48 314 0.0 0.0 0.00 0.00 0.00 55 1008.6
20260509005913 48 314 0.0 0.0 0.00 0.00 0.00 54 1008.5
20260509005412 49 314 0.0 0.0 0.00 0.00 0.00 53 1008.4
20260509004911 49 314 0.0 0.0 0.00 0.00 0.00 51 1008.3
20260509004408 49 314 0.0 0.0 0.00 0.00 0.00 51 1008.3
20260509003906 50 314 0.0 0.0 0.00 0.00 0.00 49 1008.4
20260509003403 50 314 0.0 0.0 0.00 0.00 0.00 48 1008.1
20260509002900 50 314 0.0 0.0 0.00 0.00 0.00 48 1008.1
20260509002358 50 314 0.0 0.0 0.00 0.00 0.00 47 1008.1
20260509001855 50 314 0.0 0.0 0.00 0.00 0.00 46 1007.7
20260509001351 50 314 0.0 0.0 0.00 0.00 0.00 47 1007.9
20260509000849 50 314 0.0 0.0 0.00 0.00 0.00 47 1007.8
20260509000348 51 314 0.0 0.0 0.00 0.00 0.00 46 1007.7
20260508235842 51 314 0.0 0.0 0.00 0.00 0.00 46 1007.8
20260508235339 51 314 0.0 0.0 0.00 0.00 0.00 45 1007.5
20260508234836 51 314 0.0 0.0 0.00 0.00 0.00 45 1007.4
20260508234333 52 314 0.0 0.0 0.00 0.00 0.00 45 1007.5
20260508233831 52 314 0.0 1.0 0.00 0.00 0.00 45 1007.4
20260508233331 53 314 0.0 0.0 0.00 0.00 0.00 45 1007.5
20260508232827 53 314 0.0 0.0 0.00 0.00 0.00 45 1007.4
20260508232323 53 314 0.0 0.0 0.00 0.00 0.00 45 1007.2
20260508231822 53 314 0.0 1.0 0.00 0.00 0.00 44 1007.3
20260508231317 53 314 1.0 1.0 0.00 0.00 0.00 44 1007.2
20260508230815 54 314 0.0 0.0 0.00 0.00 0.00 44 1007.1
20260508230311 54 314 0.0 0.0 0.00 0.00 0.00 44 1007.2
20260508225809 54 313 0.0 0.0 0.00 0.00 0.00 43 1006.9
20260508225306 54 313 0.0 0.0 0.00 0.00 0.00 42 1006.9
20260508224803 55 312 0.0 0.0 0.00 0.00 0.00 41 1006.9
20260508224300 55 308 1.0 1.0 0.00 0.00 0.00 41 1006.8
20260508223758 55 312 0.0 0.0 0.00 0.00 0.00 42 1006.6
20260508223255 55 312 2.0 2.0 0.00 0.00 0.00 42 1006.7
20260508222752 55 317 1.0 1.0 0.00 0.00 0.00 42 1006.8
20260508222249 55 313 1.0 1.0 0.00 0.00 0.00 43 1006.9
20260508221746 54 313 2.0 2.0 0.00 0.00 0.00 43 1006.8
20260508221242 54 313 1.0 2.0 0.00 0.00 0.00 43 1006.7
20260508220738 55 314 0.0 1.0 0.00 0.00 0.00 42 1006.7
20260508220235 56 316 0.0 1.0 0.00 0.00 0.00 42 1006.6
20260508215731 56 316 1.0 1.0 0.00 0.00 0.00 42 1006.5
20260508215228 56 310 3.0 3.0 0.00 0.00 0.00 43 1006.2
20260508214725 55 319 0.0 0.0 0.00 0.00 0.00 44 1006.5
20260508214222 55 319 0.0 0.0 0.00 0.00 0.00 44 1006.5
20260508213718 55 321 1.0 2.0 0.00 0.00 0.00 43 1006.5
20260508213215 56 321 0.0 0.0 0.00 0.00 0.00 42 1006.3
20260508212712 57 323 0.0 1.0 0.00 0.00 0.00 41 1006.4
20260508212208 57 326 0.0 1.0 0.00 0.00 0.00 40 1006.4
20260508211704 57 297 3.0 6.0 0.00 0.00 0.00 40 1006.2
20260508211200 57 308 0.0 0.0 0.00 0.00 0.00 39 1006.4
20260508210657 57 308 1.0 1.0 0.00 0.00 0.00 40 1006.2
20260508210154 57 302 2.0 3.0 0.00 0.00 0.00 41 1006.1
20260508205651 57 304 1.0 2.0 0.00 0.00 0.00 41 1006.2
20260508205148 57 306 0.0 0.0 0.00 0.00 0.00 42 1006.1
20260508204644 57 307 1.0 2.0 0.00 0.00 0.00 42 1005.8
20260508204140 57 317 1.0 1.0 0.00 0.00 0.00 40 1005.9
20260508203636 58 292 0.0 0.0 0.00 0.00 0.00 43 1006.0
20260508203133 57 272 2.0 2.0 0.00 0.00 0.00 43 1006.0
20260508202629 57 271 1.0 2.0 0.00 0.00 0.00 40 1005.9
20260508202126 57 270 1.0 2.0 0.00 0.00 0.00 43 1006.0
20260508201623 57 270 2.0 3.0 0.00 0.00 0.00 43 1005.9
20260508201119 57 263 0.0 1.0 0.00 0.00 0.00 46 1005.6
20260508200616 57 263 0.0 1.0 0.00 0.00 0.00 43 1005.8
20260508200112 57 262 2.0 2.0 0.00 0.00 0.00 42 1005.7
20260508195609 57 288 1.0 1.0 0.00 0.00 0.00 41 1005.6
20260508195106 57 305 0.0 1.0 0.00 0.00 0.00 41 1005.6
20260508194602 57 309 3.0 3.0 0.00 0.00 0.00 41 1005.7
20260508194059 57 319 1.0 2.0 0.00 0.00 0.00 40 1005.3
20260508193556 57 306 1.0 2.0 0.00 0.00 0.00 43 1005.3
20260508193053 57 307 2.0 2.0 0.00 0.00 0.00 41 1005.3
20260508192549 57 313 1.0 1.0 0.00 0.00 0.00 41 1005.4
20260508192047 57 316 1.0 1.0 0.00 0.00 0.00 42 1005.2
20260508191543 57 318 1.0 1.0 0.00 0.00 0.00 39 1005.3
20260508191040 57 329 2.0 3.0 0.00 0.00 0.00 38 1005.2
20260508190537 58 308 2.0 2.0 0.00 0.00 0.00 39 1004.9
20260508190033 58 304 1.0 1.0 0.00 0.00 0.00 39 1005.2
20260508185531 58 304 0.0 1.0 0.00 0.00 0.00 38 1005.2
20260508185028 58 304 1.0 2.0 0.00 0.00 0.00 39 1005.0
20260508184526 59 305 0.0 1.0 0.00 0.00 0.00 39 1005.2
20260508184022 59 306 1.0 1.0 0.00 0.00 0.00 37 1005.0
20260508183519 59 313 1.0 1.0 0.00 0.00 0.00 36 1005.0
20260508183015 59 313 0.0 0.0 0.00 0.00 0.00 38 1004.9
20260508182512 59 315 1.0 2.0 0.00 0.00 0.00 37 1004.9
20260508182008 59 319 0.0 1.0 0.00 0.00 0.00 35 1005.1
20260508181503 58 317 0.0 0.0 0.00 0.00 0.00 42 1004.9
20260508181001 58 316 1.0 1.0 0.00 0.00 0.00 41 1005.0
20260508180458 60 317 1.0 2.0 0.00 0.00 0.00 41 1005.1
20260508175954 59 326 0.0 1.0 0.00 0.00 0.00 41 1004.8
20260508175450 59 321 0.0 0.0 0.00 0.00 0.00 41 1005.0
20260508174948 59 334 0.0 1.0 0.00 0.00 0.00 44 1005.1
20260508174446 59 340 0.0 0.0 0.00 0.00 0.00 42 1005.1
20260508173942 60 305 1.0 2.0 0.00 0.00 0.00 40 1005.2
20260508173439 59 306 0.0 0.0 0.00 0.00 0.00 40 1004.9
20260508172935 59 306 0.0 0.0 0.00 0.00 0.00 39 1004.9
20260508172433 58 306 0.0 0.0 0.00 0.00 0.00 40 1005.0
20260508171929 58 306 0.0 0.0 0.00 0.00 0.00 42 1005.0
20260508171425 57 306 0.0 1.0 0.00 0.00 0.00 41 1005.1
20260508170922 57 309 0.0 1.0 0.00 0.00 0.00 42 1005.1
20260508170419 57 300 2.0 3.0 0.00 0.00 0.00 43 1005.0
20260508165916 58 296 0.0 0.0 0.00 0.00 0.00 40 1004.9
20260508165414 58 296 0.0 0.0 0.00 0.00 0.00 39 1004.9
20260508164909 58 294 1.0 1.0 0.00 0.00 0.00 38 1004.8
20260508164407 59 294 2.0 2.0 0.00 0.00 0.00 37 1005.1
20260508163904 60 300 2.0 2.0 0.00 0.00 0.00 37 1005.1
20260508163402 61 300 1.0 1.0 0.00 0.00 0.00 39 1005.2
20260508162857 61 300 2.0 2.0 0.00 0.00 0.00 39 1005.1
20260508162355 61 301 2.0 2.0 0.00 0.00 0.00 36 1005.2
20260508161851 61 306 1.0 2.0 0.00 0.00 0.00 39 1005.0
20260508161349 61 308 0.0 1.0 0.00 0.00 0.00 41 1005.0
20260508160846 62 332 3.0 3.0 0.00 0.00 0.00 34 1005.0
20260508160345 61 294 1.0 1.0 0.00 0.00 0.00 45 1005.1
20260508155840 59 294 0.0 0.0 0.00 0.00 0.00 41 1005.2
20260508155338 59 294 1.0 1.0 0.00 0.00 0.00 41 1004.9
20260508154835 61 294 0.0 1.0 0.00 0.00 0.00 37 1005.2
20260508154332 62 295 0.0 1.0 0.00 0.00 0.00 41 1005.4
20260508153828 63 295 2.0 2.0 0.00 0.00 0.00 36 1005.3
20260508153326 63 296 1.0 1.0 0.00 0.00 0.00 38 1005.3
20260508152821 61 295 1.0 1.0 0.00 0.00 0.00 38 1005.3
20260508152318 61 295 0.0 1.0 0.00 0.00 0.00 37 1005.3
20260508151815 61 295 1.0 1.0 0.00 0.00 0.00 41 1005.3
20260508151312 63 295 2.0 3.0 0.00 0.00 0.00 37 1005.3